Wind_Speed
9 10 11 13 18 21 21 21 22 22 21 20 20 21 21 20 20 23 25 25 25 24 23 22 20 17 16 16 19 24 24 22 22 20 21 21 20 20 19 17 17 17 17 16 15 15 14 14 13 12 12 11 10 10 10 11 11 11 11 12 12 13 13 13 13 13 13 14 15 15 16 16 15 15 15 15 15 16 16 15 15 14 14 13 13 13
12 12 11 11 15 19 22 22 22 22 22 21 21 22 21 20 21 23 25 25 24 24 23 22 21 17 17 17 18 24 26 23 23 22 21 22 22 21 19 18 18 17 17 16 16 16 15 14 13 13 12 11 10 10 10 10 11 11 12 12 12 12 13 13 13 13 13 13 14 14 15 15 15 15 15 15 15 15 15 15 14 14 13 13 12 12
14 13 12 12 14 18 22 23 21 20 21 20 22 22 21 22 23 22 23 25 23 23 24 23 22 19 18 18 18 22 26 24 25 25 24 24 23 22 20 18 18 17 17 16 16 16 16 15 14 13 12 10 9 10 10 10 11 11 12 12 12 12 13 13 14 13 13 13 14 14 14 14 14 14 14 14 14 14 14 14 13 13 13 12 12 11
15 15 13 13 14 16 20 23 22 20 20 21 22 22 22 25 25 22 22 23 22 23 25 24 23 21 19 19 18 21 28 27 26 26 25 26 25 24 22 20 19 18 17 17 17 17 17 15 15 13 12 11 11 10 11 10 11 11 11 12 12 12 12 13 13 13 13 13 13 13 13 13 13 13 13 13 12 12 12 12 12 12 11 11 11 10
17 15 14 15 15 16 18 21 23 21 21 22 22 23 24 25 26 25 24 23 22 24 25 24 23 23 21 20 18 21 30 29 26 26 24 25 26 25 24 22 21 21 19 19 18 18 18 16 15 14 13 13 12 11 11 11 11 11 11 12 12 12 12 13 13 13 12 12 12 12 12 12 12 12 12 12 12 11 11 11 11 11 10 10 10 10
17 16 16 17 17 17 18 20 23 23 23 22 22 24 26 25 26 26 25 23 22 22 24 23 21 20 22 22 15 16 29 33 29 29 27 26 27 25 25 23 22 22 20 19 19 19 19 17 16 15 14 14 13 12 11 11 11 11 11 11 12 12 12 12 13 13 12 11 11 10 10 10 11 11 11 11 11 11 11 10 10 10 9 9 9 9
16 17 18 18 16 15 16 18 22 24 22 21 23 24 25 27 27 26 25 25 23 21 22 23 21 19 21 24 17 12 23 34 32 31 31 28 26 25 25 24 23 21 20 19 19 20 19 18 18 17 16 14 13 13 12 12 12 11 11 11 11 11 12 12 13 13 13 12 12 12 12 11 11 11 11 10 10 10 10 10 9 9 9 9 8 8
17 17 17 17 15 14 15 18 22 24 22 23 25 24 25 28 28 26 26 26 27 25 21 23 24 22 21 24 21 14 17 30 34 31 31 29 27 27 26 25 25 21 20 20 19 20 20 19 19 18 17 16 15 15 14 13 13 13 12 11 11 11 12 12 12 13 13 13 13 13 13 12 12 11 11 10 10 9 9 9 9 9 8 8 8 8
16 17 16 16 15 15 16 19 22 23 24 26 26 24 26 29 28 27 27 27 28 27 23 24 25 23 22 23 24 19 15 24 36 33 30 31 29 28 28 26 26 23 21 21 20 21 21 20 20 19 18 16 16 16 16 15 14 13 13 12 12 11 12 12 12 12 13 12 12 12 12 12 12 12 11 10 10 10 9 9 9 9 8 8 8 7
15 15 15 15 16 16 18 19 21 23 25 25 24 24 26 27 27 28 28 28 28 26 24 26 26 22 21 23 25 24 16 18 35 36 30 32 31 29 30 28 27 25 23 22 21 21 22 21 20 20 19 18 18 17 17 16 15 14 14 13 13 12 12 13 13 13 13 12 12 12 11 11 12 11 11 11 10 10 9 9 9 8 8 7 7 7
14 15 14 14 15 16 18 19 21 23 24 24 23 24 25 26 27 27 28 29 27 25 25 27 27 24 21 23 25 25 18 14 28 38 33 31 32 31 31 31 28 26 25 23 22 21 22 21 21 20 20 19 18 18 17 17 16 15 15 15 13 13 13 13 13 13 13 13 13 12 12 11 11 11 11 11 10 10 9 9 8 8 7 7 6 6
14 14 14 15 15 16 17 19 21 22 23 23 23 24 25 27 28 27 28 29 25 24 27 27 27 26 24 23 22 23 21 14 18 33 37 33 31 31 31 32 31 27 26 25 23 22 21 20 20 20 20 20 19 18 18 17 17 17 16 16 15 14 14 14 14 14 14 14 14 13 12 12 11 11 10 10 10 10 9 9 8 8 7 7 6 6
13 13 14 14 15 16 17 18 20 21 22 22 22 24 26 26 27 27 27 27 24 23 26 26 26 26 25 24 21 20 22 19 15 23 36 38 33 31 32 31 31 29 27 26 24 22 20 19 20 20 19 20 20 20 19 19 18 17 17 17 17 15 15 15 14 15 14 14 14 14 13 12 12 11 11 10 10 9 9 9 8 8 7 7 7 6
8 11 13 14 15 15 16 17 18 20 21 21 22 24 25 24 24 25 26 25 24 24 26 26 25 24 24 23 21 18 20 22 20 17 28 40 38 33 33 33 32 31 28 27 26 23 21 20 20 21 20 20 22 21 20 20 19 18 17 17 17 17 16 15 15 15 15 15 15 14 14 13 13 12 11 11 10 9 8 8 8 8 7 7 7 7
5 9 13 14 14 13 14 17 18 19 20 20 22 23 23 22 22 25 26 24 24 26 26 25 23 21 24 23 20 19 18 21 24 19 19 33 41 37 35 35 34 33 32 29 27 24 22 22 22 22 23 22 22 22 21 20 20 19 18 17 17 18 17 17 16 16 16 15 15 15 14 14 13 13 12 11 10 10 9 8 8 8 8 8 8 8
6 9 14 13 12 12 13 16 18 18 19 20 22 23 23 24 24 25 25 23 24 24 23 23 21 21 25 24 20 19 19 20 23 21 16 21 37 41 37 37 36 34 34 31 29 27 25 25 24 24 25 24 23 23 23 22 21 20 20 19 18 18 18 18 17 17 17 16 16 15 14 14 14 13 12 11 11 10 10 9 9 9 9 8 8 8
4 10 16 13 13 13 12 14 17 18 18 19 20 22 24 24 23 23 21 23 26 23 19 20 20 21 23 24 21 19 19 20 21 21 17 17 31 44 41 38 38 34 34 34 30 29 28 27 27 25 25 26 25 24 24 23 22 22 21 20 19 18 18 19 18 18 18 17 17 16 15 15 14 13 12 11 11 11 11 10 10 10 10 10 9 9
7 9 13 12 12 13 13 14 17 18 19 19 19 20 22 20 21 22 18 20 26 25 20 18 19 21 22 22 22 20 19 20 19 21 22 17 23 44 46 39 39 35 35 37 33 31 31 29 28 27 26 26 26 26 26 25 24 24 22 21 20 19 19 20 19 19 18 18 17 16 15 15 14 13 12 11 11 12 12 11 11 11 11 11 11 10
11 9 10 12 13 14 14 15 18 19 19 20 19 20 20 19 21 24 21 19 23 24 21 19 18 20 21 21 22 20 18 19 17 19 25 20 17 39 51 43 40 38 35 38 37 34 33 31 29 28 27 27 27 28 27 27 26 25 24 22 22 21 21 20 19 18 18 18 17 16 15 14 14 13 13 12 12 13 12 11 11 10 11 11 11 11
13 11 11 12 13 15 16 16 18 19 19 20 20 20 21 20 20 22 23 21 21 22 21 19 17 17 19 20 20 20 19 18 17 17 23 23 15 28 51 49 39 39 38 38 39 38 34 32 31 30 29 28 28 29 28 27 26 25 24 24 23 22 21 20 19 18 18 18 17 16 15 14 14 14 14 14 14 14 13 12 11 11 11 11 11 11
13 13 12 11 10 13 17 18 18 19 21 20 17 18 21 22 22 22 23 21 20 23 21 18 16 15 16 18 18 19 19 18 18 17 19 24 18 17 39 51 43 39 40 39 39 39 36 34 33 32 31 31 30 30 29 27 27 26 24 24 23 23 22 20 20 19 18 18 18 17 16 16 15 15 15 15 15 15 14 14 13 12 12 12 12 12
13 15 16 15 11 12 17 19 18 20 21 19 17 16 16 18 20 22 22 21 21 24 21 18 17 15 15 17 17 18 19 18 19 18 17 22 22 15 23 43 48 43 41 41 40 39 39 37 35 33 33 32 32 30 29 28 27 26 25 24 24 23 22 21 20 20 19 19 19 18 18 17 17 17 17 17 17 16 16 15 15 14 14 13 13 12
13 15 18 19 18 15 16 16 19 21 21 20 20 18 15 16 19 20 20 19 20 22 21 19 19 16 13 15 17 17 17 17 18 19 17 18 23 19 16 28 44 48 45 43 42 41 41 40 38 36 34 33 32 31 30 29 28 26 25 24 23 23 22 22 21 21 21 20 20 19 19 19 18 18 18 18 18 18 17 17 16 16 16 15 15 14
14 15 17 20 22 20 19 18 19 22 22 21 21 19 16 17 18 19 18 18 20 21 20 20 20 14 9 11 15 15 15 16 16 18 17 17 21 22 18 20 36 47 47 45 44 42 41 41 40 38 36 34 33 32 31 30 29 28 27 25 24 24 23 22 22 22 22 22 21 21 20 20 20 19 20 20 20 20 19 19 18 18 17 17 16 16
14 15 16 19 21 20 20 21 21 22 22 21 21 20 18 16 17 17 17 17 17 16 17 20 19 12 6 8 12 14 14 15 15 15 15 17 19 21 20 20 30 41 45 46 46 42 40 42 42 40 37 35 34 33 32 31 30 29 28 26 26 25 25 24 23 23 23 23 23 22 22 22 21 21 21 22 22 21 21 21 20 20 19 18 18 17
13 15 15 18 20 18 18 20 21 21 21 21 21 20 19 17 17 17 17 16 13 13 17 19 16 11 7 8 11 12 12 13 14 14 14 15 18 19 19 21 29 38 45 47 45 41 40 42 43 40 39 37 35 35 33 32 31 30 29 28 28 27 27 26 26 26 25 25 25 24 24 24 23 23 23 24 24 23 23 23 22 22 21 20 19 19
13 14 14 16 20 20 20 21 21 19 20 21 22 21 20 20 19 17 17 17 14 14 17 15 12 10 6 5 8 11 12 12 12 13 14 14 16 18 19 22 31 40 46 47 44 41 41 42 42 40 39 37 36 35 35 33 32 31 30 30 30 30 29 29 29 28 28 28 27 27 27 26 26 26 26 26 26 25 25 24 24 24 23 21 21 20
12 13 14 15 18 20 21 24 25 23 21 21 21 20 19 22 22 18 18 19 16 16 17 12 10 10 6 3 6 11 13 12 11 12 13 13 14 15 15 20 34 43 47 48 44 41 41 41 41 40 38 37 37 36 35 35 34 33 32 32 32 32 31 32 31 31 31 31 30 30 30 30 29 29 29 29 29 28 27 26 26 26 25 24 23 23
12 13 14 15 17 18 19 22 26 28 27 25 23 21 19 21 22 21 20 20 18 19 18 13 10 12 10 5 7 12 15 13 12 12 13 14 14 13 12 15 36 47 48 48 46 42 42 41 40 40 39 38 38 37 36 36 34 34 33 33 33 32 32 33 32 32 32 32 32 32 32 32 32 32 32 32 31 30 29 29 28 28 27 27 26 25
14 14 13 13 16 18 18 19 22 25 28 29 28 25 23 22 22 22 22 21 21 21 19 15 13 14 13 9 8 12 16 15 12 11 13 15 17 16 11 12 31 50 50 48 47 43 43 43 41 41 40 39 38 38 37 36 35 35 35 34 34 33 33 33 32 32 32 32 33 33 33 33 33 32 32 33 32 32 31 30 29 29 29 29 28 27
16 16 15 14 15 17 18 19 21 23 25 28 30 30 28 26 24 24 23 22 23 23 20 18 18 17 16 14 13 13 16 15 12 10 11 13 17 19 13 12 22 47 52 48 48 46 44 44 43 42 41 41 40 39 38 37 36 35 35 34 33 32 32 32 32 33 32 32 33 34 33 32 32 31 31 31 31 31 31 31 30 30 30 30 30 29
18 18 18 16 16 18 18 18 20 23 23 25 28 30 31 30 29 27 24 23 23 24 22 21 22 20 18 18 17 16 15 15 14 12 11 10 11 14 12 9 11 36 49 47 46 47 46 45 44 43 42 42 41 40 39 37 36 35 34 32 31 30 30 30 30 30 29 30 31 32 31 30 29 29 28 27 28 30 31 31 30 31 31 31 31 31
19 19 20 19 17 19 20 19 20 22 22 24 26 28 29 32 32 30 27 25 24 24 23 24 24 22 20 21 21 19 17 17 17 14 12 12 10 10 11 8 5 21 41 46 45 46 47 47 45 44 44 43 41 40 38 36 35 34 32 31 29 28 28 28 27 27 27 27 28 29 29 29 28 27 26 27 28 30 31 30 29 29 30 32 32 33
20 20 21 20 18 19 20 20 21 21 22 24 25 25 26 28 31 31 30 28 26 25 26 25 24 22 20 22 24 21 18 18 19 17 13 12 12 11 10 10 7 10 26 41 48 49 48 47 46 45 45 44 42 40 38 36 35 34 33 32 30 29 29 29 29 28 29 30 30 30 31 32 31 29 28 29 30 30 31 31 29 29 30 32 33 32
20 20 21 20 19 19 20 20 20 21 22 24 24 24 25 25 27 29 30 30 28 27 27 26 25 23 20 22 25 23 19 19 21 21 16 13 16 15 10 10 12 11 14 27 43 51 51 48 49 49 48 46 43 41 39 37 36 35 35 34 34 33 33 33 32 32 32 33 33 33 34 34 34 32 31 31 31 32 33 33 33 31 31 31 32 32
20 20 20 20 19 19 19 18 18 19 21 22 23 24 24 23 24 26 27 29 29 28 28 27 26 23 20 21 25 25 22 22 23 23 19 15 17 19 14 11 13 12 8 14 29 47 55 52 49 48 45 43 41 41 41 40 39 38 37 36 36 35 35 34 33 33 33 33 34 35 36 37 38 37 34 34 34 35 35 35 36 36 34 32 32 32
20 20 19 19 18 17 17 16 16 16 17 20 21 23 23 22 22 23 24 26 29 29 29 29 27 25 21 20 25 27 25 25 25 24 22 19 18 19 17 14 13 11 9 9 15 30 44 46 42 42 43 44 44 43 41 40 39 38 37 36 35 35 35 34 34 34 35 35 35 36 36 38 41 42 40 39 38 38 37 37 39 41 40 37 36 35
19 19 18 18 17 16 16 16 14 14 15 18 20 20 20 20 20 20 21 23 26 28 28 29 28 27 24 21 23 27 28 27 27 26 24 22 21 19 17 16 14 13 14 12 11 17 25 29 28 29 31 35 41 45 45 44 42 39 38 37 36 36 36 35 33 33 33 34 34 35 36 38 40 43 45 45 42 41 42 42 44 45 44 42 40 37
19 19 18 17 17 16 16 16 14 14 16 17 17 17 18 18 19 19 19 21 23 25 26 28 28 27 26 24 24 27 28 28 28 29 26 24 24 23 19 16 14 14 15 15 14 16 17 18 17 16 16 19 23 29 36 40 40 39 37 35 34 33 31 30 28 27 27 28 30 33 35 37 38 40 44 46 46 46 47 46 46 46 45 44 42 38
19 19 18 18 18 17 17 17 16 16 16 16 16 16 17 17 17 18 19 20 21 23 25 27 27 27 26 26 26 26 27 28 28 29 28 26 27 26 23 17 14 14 15 15 16 18 18 17 15 14 14 15 15 16 20 24 27 29 28 27 27 26 24 23 22 21 19 18 22 25 28 31 36 38 39 41 44 48 49 49 50 49 47 44 41 38
20 19 18 18 18 18 17 16 16 17 17 17 17 17 16 16 16 18 20 20 19 21 24 26 26 27 26 26 27 26 25 25 27 28 27 27 28 28 25 20 16 15 16 16 16 17 19 18 16 14 14 16 16 16 17 18 20 21 21 21 21 21 20 19 18 18 14 10 11 16 20 24 30 35 39 43 46 49 50 50 51 51 47 44 41 40
19 20 19 18 17 17 17 17 17 17 18 18 19 18 17 17 18 19 21 21 20 21 23 24 26 26 27 27 27 26 24 22 23 25 26 27 28 28 27 22 18 17 19 18 17 17 17 16 15 14 13 14 15 16 18 19 20 20 20 20 18 17 17 17 17 18 17 13 13 17 20 21 22 25 30 34 37 40 44 46 47 46 42 41 42 43
19 20 19 18 18 18 18 18 18 18 18 19 21 20 19 19 20 20 20 20 21 22 24 25 26 27 27 28 28 27 24 21 19 21 23 25 25 26 26 24 19 16 18 20 20 18 16 14 13 12 10 11 14 15 16 18 20 21 21 21 20 19 18 18 17 17 18 17 16 17 17 16 14 13 14 16 17 20 27 35 42 44 42 40 40 41
19 20 20 20 19 18 18 18 19 19 19 20 21 21 21 22 21 21 22 22 23 24 25 26 26 27 27 28 29 28 26 22 19 19 21 23 22 22 22 23 19 14 13 17 19 18 15 13 12 12 11 11 13 14 15 17 18 19 19 19 20 20 21 21 20 20 19 18 17 17 16 14 12 9 8 9 10 10 10 14 22 28 30 31 30 29
19 20 21 21 19 18 18 19 19 19 20 21 21 21 22 23 22 22 23 24 24 25 25 26 27 28 28 29 30 29 28 25 20 19 20 22 21 19 19 20 20 17 12 12 13 13 12 11 10 11 13 13 14 15 16 16 16 15 15 17 18 19 21 21 22 23 22 20 20 20 19 17 14 10 8 9 10 9 7 6 8 10 13 16 17 17
20 21 22 21 20 19 19 19 19 19 20 21 22 22 23 23 23 23 23 24 25 26 26 26 27 29 30 30 30 30 30 28 23 19 21 23 21 19 17 18 20 20 15 11 9 9 8 8 8 9 12 13 13 14 14 15 15 14 13 15 17 18 19 20 20 22 22 21 22 23 24 23 19 15 13 13 12 10 9 10 11 11 13 15 17 16
20 21 22 20 20 20 19 18 19 19 19 20 21 23 24 25 25 25 24 25 26 27 28 28 29 30 31 31 32 32 31 29 25 21 22 23 23 19 16 16 18 19 17 14 12 11 10 9 8 8 8 10 12 13 13 13 15 14 13 14 16 18 19 19 19 20 21 21 21 22 24 25 22 18 16 17 16 15 15 15 17 18 19 21 21 21
20 21 21 20 19 20 19 18 18 18 19 19 20 22 24 25 26 26 26 26 27 28 29 29 30 31 32 33 34 34 32 30 29 27 25 25 25 23 19 17 17 17 17 16 15 15 14 13 12 12 10 10 11 13 13 14 14 15 15 15 15 16 17 18 18 20 21 22 22 23 24 24 23 21 20 19 19 19 19 19 20 21 22 23 24 24
20 20 20 19 18 18 18 17 17 18 18 19 19 21 23 24 25 26 27 27 28 29 29 30 31 32 33 33 34 34 33 31 31 30 27 27 27 26 23 21 19 19 19 18 17 17 17 16 16 16 15 15 14 14 15 14 14 15 16 16 16 15 15 15 16 17 19 21 22 23 24 24 24 23 23 22 21 22 22 22 23 24 25 26 26 27
22 21 20 18 17 18 18 17 17 17 18 18 18 20 21 21 22 24 25 27 28 29 30 30 32 33 34 35 36 35 34 33 33 32 29 28 28 27 25 24 22 20 21 21 20 19 19 18 18 18 18 18 17 16 16 16 15 16 16 17 18 18 18 19 19 19 20 21 22 23 24 24 25 25 25 24 24 24 25 26 26 27 28 29 29 30
23 22 20 18 18 18 17 17 16 17 17 18 18 18 19 20 21 22 23 25 27 29 30 31 33 34 35 36 36 35 34 34 34 34 33 32 31 29 27 25 24 22 22 23 23 22 20 19 19 19 19 18 18 18 18 17 17 17 17 18 19 20 21 22 23 23 23 23 23 24 24 25 25 26 26 26 27 26 27 27 28 29 30 31 31 32
Wind_Direction
220 216 207 206 207 205 204 207 214 218 216 213 208 210 215 218 221 227 230 228 225 225 226 228 228 230 237 234 219 207 199 195 195 192 189 187 185 185 186 187 187 191 192 187 186 189 187 184 185 189 188 186 185 180 176 173 163 159 156 151 149 146 145 143 142 144 144 144 145 145 144 145 147 149 152 153 153 153 153 155 156 158 159 160 158 154
225 224 217 214 213 208 208 211 215 219 220 218 216 215 217 222 228 233 235 232 229 228 226 227 225 228 237 237 226 212 201 194 194 193 190 188 188 189 189 187 187 190 194 189 186 191 189 184 185 189 188 187 186 181 177 174 167 162 161 157 154 153 152 149 147 147 147 145 144 146 146 147 149 151 152 154 155 156 156 157 158 160 161 162 162 159
229 229 223 219 217 214 215 217 220 226 226 222 220 218 216 222 225 231 237 234 231 229 225 226 224 225 232 235 235 221 205 198 196 194 191 189 190 192 191 187 185 188 194 191 188 194 192 184 185 187 187 187 187 184 180 176 171 167 165 163 160 159 158 155 153 153 153 150 148 149 149 148 148 149 151 153 155 156 156 158 159 161 163 164 165 164
231 231 227 224 222 221 222 222 224 230 233 228 223 220 218 222 222 222 231 233 234 231 226 225 223 224 228 230 239 225 205 201 201 197 194 192 190 192 191 186 184 188 193 193 191 195 194 186 184 186 186 187 188 186 183 177 175 172 169 168 167 165 164 161 159 159 159 157 154 151 149 147 145 145 148 149 151 154 156 158 160 161 163 164 166 167
229 231 227 226 225 225 226 226 225 228 234 233 228 224 222 224 225 224 228 230 234 234 228 226 223 225 225 223 240 229 203 199 203 200 199 198 194 193 191 186 185 189 192 194 193 195 195 188 183 184 188 189 188 186 183 179 178 177 172 170 171 170 167 166 164 162 162 160 156 151 146 143 141 139 141 145 147 151 155 157 159 159 160 163 166 167
231 231 229 230 229 230 231 230 228 228 232 234 232 229 228 229 228 227 227 226 233 238 232 227 224 230 229 222 241 233 201 196 200 200 200 201 198 195 192 188 188 190 193 195 196 198 196 188 182 184 190 192 188 186 185 182 180 180 176 173 172 171 168 168 166 164 163 160 154 149 144 140 138 138 140 143 143 145 149 152 154 155 154 156 159 162
234 232 232 236 237 239 242 240 236 233 233 234 233 231 233 234 232 230 227 223 228 237 234 229 225 230 234 227 233 237 207 200 199 199 199 199 199 197 193 192 191 192 196 197 198 200 196 188 185 185 189 191 189 187 186 184 184 183 180 175 172 170 167 165 166 165 163 161 158 153 151 148 145 146 145 143 141 140 141 141 143 145 147 148 150 154
232 232 234 240 243 244 246 243 240 236 232 233 233 231 230 232 233 232 230 225 227 232 233 232 228 227 235 231 227 236 226 208 201 199 199 198 200 198 194 195 195 191 197 201 201 201 197 190 189 186 186 189 189 188 187 186 187 185 182 177 174 170 165 164 165 166 164 163 162 161 160 157 153 152 150 146 144 142 138 135 134 134 137 140 143 146
232 234 237 242 245 244 242 240 239 237 234 234 235 233 231 232 233 234 234 232 231 231 233 235 232 230 236 238 228 232 245 217 203 200 199 198 199 197 195 198 197 192 195 202 203 202 198 195 193 187 184 188 191 190 188 187 187 187 184 180 177 172 165 165 166 166 166 165 166 167 166 163 159 156 154 152 149 147 144 139 136 133 134 135 136 140
238 241 244 245 246 243 241 240 239 238 238 238 237 235 234 234 233 235 237 236 234 233 235 237 235 233 238 245 236 233 251 229 205 201 202 200 197 195 195 198 199 194 194 200 204 203 199 196 196 190 185 190 194 193 191 188 186 188 187 182 180 175 169 167 167 166 166 167 168 170 171 168 165 161 160 161 158 155 152 146 143 141 140 138 135 133
247 250 251 247 247 246 243 240 238 239 240 238 236 236 237 236 235 236 239 239 237 234 237 238 235 233 236 246 245 239 248 243 211 204 204 203 200 195 194 197 199 195 194 200 205 205 201 197 196 193 189 192 196 195 193 191 188 188 188 186 182 178 175 172 170 169 167 168 169 170 172 171 168 166 166 167 167 165 162 156 152 150 148 147 143 137
254 257 257 251 248 246 244 240 238 240 240 236 235 236 236 237 237 239 243 245 243 239 240 242 239 236 236 243 250 247 244 246 224 210 206 205 204 199 195 197 199 196 194 199 204 206 204 197 195 196 194 194 197 197 195 193 191 190 188 187 186 184 184 180 176 175 171 169 169 169 171 172 170 170 171 173 174 174 172 168 163 160 160 161 159 155
259 257 257 255 251 246 244 243 239 240 241 236 233 234 234 235 237 240 244 245 245 244 246 247 243 239 239 243 250 255 247 243 242 221 209 206 205 201 199 198 199 197 196 198 202 205 204 198 194 197 198 197 200 201 198 196 194 193 191 189 189 190 190 189 184 182 179 175 173 171 172 172 171 172 175 177 179 180 179 177 175 175 176 176 175 173
269 271 263 254 252 248 242 242 240 237 237 234 230 231 231 231 235 239 241 241 240 243 246 248 246 242 240 244 248 254 253 245 247 238 215 208 204 201 201 200 199 198 198 199 201 202 201 198 196 197 198 199 202 203 201 199 197 197 196 193 191 192 194 196 193 189 187 183 179 177 176 175 175 176 176 178 179 180 180 180 183 185 188 190 187 183
243 276 268 252 252 250 240 240 241 237 235 230 227 229 227 226 231 234 236 235 233 237 244 247 247 243 239 244 249 250 251 247 246 250 233 213 205 201 200 200 198 197 198 199 199 199 198 197 197 199 200 202 203 204 203 202 200 199 201 199 196 195 196 199 200 197 194 190 187 186 183 181 181 180 181 181 181 180 180 182 184 186 191 195 195 190
230 255 260 254 255 251 241 240 241 241 240 232 228 228 225 224 228 229 228 228 227 233 243 246 245 241 238 243 250 251 249 247 243 246 252 228 211 205 201 200 199 197 198 199 197 197 198 197 197 199 201 203 204 204 204 203 201 200 202 203 202 200 200 202 204 203 199 195 194 193 191 188 186 185 186 186 186 186 185 188 189 190 192 195 198 198
231 255 260 255 254 252 246 244 242 240 238 233 230 229 226 225 227 228 229 231 229 231 239 241 240 241 240 244 250 254 252 249 244 235 242 246 218 208 204 201 201 198 197 198 197 196 198 198 198 200 203 204 205 206 206 204 203 203 203 204 204 205 205 207 208 208 205 201 199 199 198 195 192 190 190 190 191 193 193 195 197 197 197 197 199 200
222 249 261 252 249 252 249 248 246 241 236 234 232 231 231 229 227 225 229 233 228 227 233 234 235 238 239 243 246 251 253 252 251 235 233 253 227 209 205 203 203 201 197 197 197 197 199 199 198 201 203 205 207 208 209 207 206 205 206 206 207 208 209 210 210 211 211 209 205 204 203 203 201 198 196 197 198 200 201 201 202 203 204 204 203 201
233 242 259 252 245 246 245 247 249 246 240 235 231 229 231 231 230 227 229 234 228 226 232 233 233 236 236 239 241 242 248 251 256 245 236 252 242 210 206 204 205 205 200 198 198 197 198 198 199 203 205 206 208 210 211 212 211 209 209 209 210 212 213 213 213 215 216 216 214 212 211 211 210 207 205 204 206 209 209 209 208 207 210 212 211 208
238 238 251 256 247 243 244 244 248 251 248 242 234 230 231 232 234 232 231 237 232 227 231 231 232 237 236 237 239 239 244 247 254 258 244 247 255 216 206 205 205 206 204 201 201 198 196 197 199 203 206 208 210 211 212 213 214 214 214 214 215 217 218 217 216 217 218 220 220 219 219 219 218 216 214 212 213 214 215 217 218 216 217 219 219 219
240 236 239 250 250 246 244 237 239 249 250 246 239 231 231 234 232 229 233 238 231 224 226 225 228 236 238 238 238 238 242 244 247 261 254 244 253 233 210 206 206 207 206 205 204 200 197 197 199 202 206 209 210 211 212 213 215 217 218 219 221 222 223 222 222 221 220 221 222 222 222 223 223 222 221 220 220 219 219 221 223 224 226 226 227 228
243 237 234 240 247 251 248 239 236 246 250 250 250 246 242 241 235 231 233 234 226 221 221 223 225 232 239 240 236 233 236 240 242 255 261 245 243 252 223 211 208 208 208 207 206 202 200 200 202 204 207 209 211 212 213 214 216 217 219 221 223 226 226 226 227 227 226 225 225 225 225 225 226 226 226 226 226 225 224 225 226 228 231 232 233 235
245 244 239 241 246 248 246 238 231 239 247 250 256 260 256 250 243 236 233 233 229 223 222 228 230 230 239 240 232 229 231 234 240 248 257 250 241 248 247 221 212 210 209 209 206 204 203 203 204 205 207 210 211 213 214 216 217 218 220 222 224 226 227 227 229 230 231 230 229 229 230 230 231 230 231 231 231 231 229 229 230 232 233 236 237 239
248 249 244 243 250 253 250 245 233 233 240 243 252 258 253 251 248 238 239 243 233 225 229 237 236 231 236 234 228 229 228 229 239 245 249 250 244 246 254 237 217 212 212 210 207 206 205 204 205 206 207 209 211 214 215 216 218 220 221 223 225 227 228 228 230 232 233 233 233 233 233 234 234 235 236 236 236 236 235 234 234 235 237 239 241 243
250 250 247 244 251 259 260 258 248 242 241 239 246 252 248 251 251 243 247 248 232 227 233 234 229 226 233 234 229 230 226 225 235 243 245 245 245 249 253 241 222 215 214 213 210 208 206 205 206 207 207 209 211 214 216 217 219 220 221 223 226 228 230 230 230 232 233 234 235 235 235 235 236 237 238 239 240 240 240 240 240 239 240 241 243 246
254 252 250 246 247 252 258 259 253 248 246 241 241 245 246 249 250 248 253 251 239 233 228 223 219 216 219 234 235 233 226 225 234 242 246 243 243 251 252 235 221 216 215 215 212 209 207 206 207 208 209 209 211 213 215 216 218 220 221 223 226 228 230 231 231 232 233 234 234 235 235 235 235 236 237 239 241 242 242 243 245 244 243 243 245 247
258 255 253 251 249 248 250 255 255 251 249 244 238 236 238 242 244 248 252 250 244 232 223 220 219 213 208 218 233 237 230 229 240 246 249 247 244 255 255 232 217 212 213 215 213 208 206 207 208 210 211 211 213 215 216 216 217 218 220 221 224 226 228 230 232 233 234 234 234 235 236 236 236 236 236 237 239 241 242 244 246 247 246 245 246 247
262 261 258 255 255 253 251 255 257 255 251 246 240 236 234 236 237 241 246 246 240 232 230 229 219 220 229 208 231 252 247 238 248 252 252 253 248 261 268 232 214 211 212 213 211 207 206 207 208 211 212 214 216 217 218 218 218 218 220 221 223 225 227 229 230 232 234 234 235 235 236 236 237 237 238 238 238 239 240 242 244 246 247 247 246 246
262 263 261 260 261 260 257 256 256 258 257 252 248 246 241 238 237 236 240 243 239 236 240 239 223 229 243 229 233 261 260 251 256 257 256 256 246 257 287 244 216 213 212 210 208 207 206 207 209 212 213 215 217 219 220 220 219 219 221 223 224 225 227 229 231 232 234 235 236 237 238 239 239 239 240 241 241 240 240 240 242 243 245 246 246 246
261 263 263 262 263 262 259 258 257 257 259 257 254 253 249 245 243 240 238 240 238 237 239 235 226 228 238 237 240 260 265 260 258 258 259 260 248 246 287 275 222 212 208 207 207 208 207 207 209 211 213 216 218 220 221 220 220 220 221 223 224 225 227 229 231 232 234 236 238 239 241 242 244 245 245 246 248 247 246 244 243 244 245 246 247 248
259 263 263 262 265 266 262 260 258 256 255 256 256 256 253 250 249 249 244 239 239 239 236 233 230 227 228 232 233 246 262 263 256 255 261 268 256 243 267 301 230 212 208 206 206 207 207 208 210 211 213 215 217 220 221 221 221 222 222 223 223 223 225 227 230 232 234 236 239 241 243 245 247 249 250 251 253 255 255 253 250 248 248 248 249 250
257 260 263 262 264 267 264 261 260 258 256 256 254 254 253 251 250 250 248 244 242 240 236 234 233 230 227 228 228 232 246 256 259 260 257 264 262 241 250 303 243 214 213 212 209 208 207 209 211 213 213 215 217 219 220 221 222 223 224 224 222 221 223 226 230 233 235 237 241 243 245 245 246 248 249 249 250 252 255 258 258 255 252 252 252 252
255 258 262 263 263 265 266 264 262 260 258 256 252 249 250 250 249 248 247 247 245 241 239 239 238 236 232 229 231 230 230 242 257 263 254 251 254 242 243 283 278 217 215 216 215 212 210 210 212 214 215 216 218 220 220 220 222 223 225 227 226 226 227 229 232 236 239 241 242 244 246 246 245 246 247 247 247 247 248 251 255 257 254 252 251 251
250 254 259 262 264 266 269 268 265 263 258 254 250 248 248 248 248 246 245 246 245 243 245 248 247 246 238 230 233 235 228 232 248 255 256 248 235 228 242 260 267 225 214 216 216 214 213 213 213 215 218 217 217 219 220 220 222 224 227 230 232 234 235 236 237 239 241 243 244 244 246 246 246 246 246 247 249 251 249 248 249 251 250 248 247 247
243 249 255 260 265 269 271 271 269 264 257 253 250 248 249 248 247 245 244 244 244 244 248 250 249 249 243 230 231 236 231 232 243 250 256 246 218 214 237 252 239 227 211 211 213 212 212 213 213 214 217 218 217 218 220 220 222 223 226 228 231 234 236 237 239 241 244 247 249 248 248 248 249 249 248 248 251 253 254 252 251 250 250 250 248 246
238 245 251 257 264 269 271 272 270 264 257 253 250 247 247 248 247 245 243 241 242 243 246 249 247 246 244 233 228 230 231 234 242 249 254 247 222 220 235 241 228 226 213 198 203 207 209 212 214 214 217 219 218 219 220 221 222 224 226 228 231 234 237 240 244 249 251 253 253 253 251 249 250 250 251 250 250 253 254 254 254 254 252 252 252 250
234 242 251 257 264 269 272 271 269 267 259 253 248 245 244 246 247 245 242 239 239 239 240 245 246 244 243 237 228 226 228 233 241 248 252 249 237 231 233 230 226 231 228 196 183 194 203 209 213 215 218 221 221 222 223 224 224 226 229 231 235 239 243 248 251 253 254 254 253 252 250 249 248 249 250 250 251 253 253 251 254 256 253 251 252 252
232 239 247 256 262 267 271 270 267 267 260 252 246 243 241 244 247 246 244 239 236 235 236 240 244 243 243 240 232 227 227 231 239 247 251 251 246 238 234 233 233 236 232 215 179 174 187 195 199 204 209 213 216 220 223 225 227 228 230 234 239 242 246 248 250 251 253 253 252 251 249 248 248 247 247 247 247 248 249 248 250 253 252 250 251 251
232 235 242 252 260 262 264 266 265 261 256 251 247 244 242 243 246 246 245 241 236 234 235 238 241 242 240 239 235 231 228 229 238 246 249 253 252 246 238 235 234 235 234 225 203 185 182 183 183 187 191 192 198 206 212 217 220 223 225 228 232 235 238 241 243 245 249 251 252 252 250 249 247 246 246 246 244 244 246 247 248 250 250 250 251 251
233 235 240 248 257 261 263 264 262 257 256 254 250 247 243 242 244 245 245 243 238 234 235 236 238 240 239 236 236 234 230 230 238 245 248 252 256 253 245 240 238 235 234 231 216 198 186 182 184 190 194 192 189 192 198 204 207 210 213 216 219 222 226 230 232 232 240 250 250 246 249 251 249 245 243 243 243 243 245 246 246 247 248 248 251 254
235 237 240 246 254 260 263 264 262 258 257 255 252 249 246 243 244 244 242 241 239 236 235 235 236 237 238 236 236 237 235 233 237 244 248 252 257 256 250 247 252 244 234 239 235 210 186 180 188 195 197 195 194 198 202 205 206 207 210 214 217 222 224 227 226 222 226 248 251 242 249 257 254 245 239 238 239 241 242 243 243 246 247 247 249 253
237 237 240 244 249 254 257 260 262 259 257 255 254 252 249 245 245 244 243 241 238 236 235 233 233 235 236 236 237 239 240 237 236 243 250 253 256 259 255 253 260 252 236 237 241 221 196 189 198 205 203 200 200 204 209 213 215 216 218 219 220 221 222 225 226 222 222 233 249 253 257 261 260 252 244 241 242 242 241 239 240 242 245 247 249 252
237 237 240 242 244 248 251 256 261 262 260 257 255 253 250 248 247 247 248 245 241 238 235 232 231 231 233 235 237 239 241 239 236 240 249 253 256 260 259 258 262 258 240 235 235 226 213 208 211 213 215 215 213 213 215 218 221 223 224 224 224 225 227 228 229 230 232 237 243 247 249 252 258 259 247 242 246 245 241 241 243 244 245 247 251 252
237 237 239 242 243 246 249 254 259 262 261 258 256 254 252 250 248 248 249 248 244 240 237 234 231 230 231 234 236 237 238 239 235 233 241 250 255 257 259 257 254 255 247 236 232 230 229 231 229 228 234 236 230 227 225 221 219 222 227 231 234 238 243 243 241 243 248 249 245 244 246 250 256 254 238 238 248 247 241 243 242 239 239 241 245 249
239 237 239 242 244 246 249 255 257 258 259 259 257 256 255 253 252 250 249 248 246 243 239 234 231 229 228 229 232 234 235 235 234 228 232 243 249 252 254 250 244 246 252 245 235 234 240 249 249 243 245 250 250 251 252 244 238 240 245 248 253 256 257 254 252 252 252 250 247 250 257 261 259 245 226 231 242 240 240 252 241 226 232 244 248 250
239 238 238 240 244 248 251 256 258 258 259 259 258 257 257 256 254 252 250 249 247 244 239 233 228 226 223 221 224 229 230 229 228 224 226 235 243 245 245 243 240 243 252 253 242 230 230 242 251 245 246 254 260 264 267 263 258 260 261 256 256 257 256 255 253 253 253 250 246 250 257 260 256 244 231 234 243 241 237 244 244 232 232 241 243 241
243 240 239 240 245 251 254 259 262 262 261 259 258 257 256 255 255 253 252 249 246 244 240 233 226 224 222 217 217 222 224 224 223 220 220 227 236 241 240 239 239 243 248 249 243 233 228 237 251 253 252 256 257 256 258 257 255 255 257 255 252 250 251 252 251 251 251 249 245 245 249 251 250 246 243 244 249 249 242 238 239 237 233 234 237 239
246 243 242 242 246 252 258 264 266 266 264 261 258 256 254 254 254 254 252 250 245 241 238 232 226 222 221 218 216 219 222 223 221 218 213 215 224 233 235 233 233 236 240 241 241 238 235 237 246 255 260 258 254 252 252 253 253 251 251 254 255 253 252 252 252 251 249 248 245 243 244 247 250 253 256 256 255 254 251 246 246 247 246 246 248 251
245 243 242 241 246 253 260 266 269 270 268 263 259 258 257 256 254 253 251 248 243 237 233 230 225 221 219 217 217 219 223 222 218 216 215 214 218 225 228 227 225 227 231 234 237 239 239 239 242 248 255 257 257 256 254 253 252 250 249 251 256 258 256 255 254 253 252 252 253 253 254 257 261 263 263 263 259 257 257 256 255 256 257 258 259 261
244 241 239 240 245 252 258 265 271 272 270 266 263 262 260 258 256 253 249 245 240 235 230 226 221 218 217 215 214 216 220 219 216 217 220 221 219 220 221 222 222 222 225 230 234 238 241 243 244 245 249 253 257 259 258 255 252 250 249 250 252 254 255 256 258 259 259 259 260 261 263 266 269 270 271 270 268 266 265 265 264 264 264 265 265 266
241 238 235 236 241 247 255 265 272 271 269 268 266 264 262 262 261 257 251 245 238 231 226 223 219 217 216 215 215 215 217 218 217 219 221 221 221 221 223 227 230 230 229 229 233 238 241 244 246 247 247 249 253 257 258 256 254 251 249 248 250 252 253 255 257 259 261 262 262 263 264 266 269 271 272 273 272 271 270 268 268 268 268 269 269 269
Height
5867 5868 5869 5870 5871 5872 5873 5874 5875 5877 5878 5880 5881 5882 5883 5885 5886 5886 5886 5887 5889 5890 5891 5892 5893 5895 5896 5896 5897 5899 5900 5901 5903 5905 5906 5907 5908 5909 5910 5912 5913 5914 5914 5915 5916 5917 5918 5919 5920 5921 5922 5923 5923 5924 5924 5925 5925 5926 5926 5926 5927 5927 5928 5928 5929 5930 5930 5931 5932 5933 5933 5934 5934 5935 5936 5937 5937 5938 5938 5939 5940 5941 5942 5942 5943 5943
5866 5867 5868 5869 5870 5871 5872 5873 5874 5875 5876 5878 5879 5879 5881 5884 5885 5884 5884 5885 5887 5888 5889 5890 5891 5893 5894 5894 5895 5897 5898 5901 5903 5903 5905 5906 5907 5908 5910 5911 5912 5914 5914 5915 5916 5917 5918 5918 5919 5920 5921 5922 5923 5924 5925 5925 5926 5926 5926 5927 5927 5928 5928 5929 5929 5930 5931 5932 5932 5933 5934 5934 5935 5936 5936 5937 5938 5938 5939 5940 5940 5941 5942 5943 5943 5944
5865 5866 5867 5868 5869 5870 5870 5872 5873 5874 5874 5876 5877 5878 5880 5882 5882 5882 5883 5883 5885 5886 5887 5888 5890 5891 5892 5892 5893 5895 5898 5900 5901 5901 5902 5904 5906 5907 5909 5910 5912 5913 5914 5915 5916 5917 5917 5918 5919 5920 5921 5922 5923 5924 5925 5925 5926 5926 5927 5927 5928 5928 5928 5929 5929 5930 5931 5932 5933 5933 5934 5935 5935 5936 5937 5937 5938 5939 5939 5940 5940 5941 5942 5943 5943 5944
5863 5865 5866 5866 5867 5868 5869 5870 5871 5872 5873 5874 5875 5876 5878 5878 5879 5880 5881 5882 5883 5884 5885 5886 5887 5889 5890 5891 5892 5893 5896 5898 5899 5901 5901 5902 5904 5906 5908 5909 5911 5912 5914 5914 5915 5916 5917 5917 5918 5919 5920 5922 5923 5924 5925 5925 5926 5927 5927 5928 5928 5929 5929 5929 5930 5930 5931 5932 5932 5933 5934 5935 5936 5936 5937 5938 5938 5939 5939 5940 5940 5941 5942 5942 5943 5944
5861 5863 5864 5864 5865 5866 5867 5868 5869 5870 5871 5872 5874 5875 5875 5875 5876 5878 5879 5880 5881 5881 5883 5884 5886 5887 5888 5889 5890 5890 5892 5895 5899 5901 5902 5902 5903 5905 5906 5908 5910 5911 5913 5914 5915 5916 5916 5917 5918 5919 5920 5921 5922 5923 5924 5925 5926 5927 5928 5928 5929 5929 5929 5930 5930 5931 5932 5932 5933 5934 5935 5935 5936 5937 5937 5938 5939 5939 5940 5940 5940 5941 5941 5942 5943 5944
5860 5861 5861 5862 5863 5865 5866 5866 5867 5868 5869 5871 5873 5873 5873 5874 5875 5876 5877 5879 5880 5881 5882 5883 5886 5887 5886 5887 5888 5888 5889 5893 5896 5898 5901 5902 5902 5904 5906 5907 5909 5910 5912 5913 5914 5915 5916 5916 5917 5918 5919 5921 5922 5923 5924 5925 5926 5927 5928 5928 5929 5930 5930 5930 5931 5931 5932 5933 5934 5935 5935 5936 5936 5937 5938 5938 5939 5939 5940 5940 5941 5941 5942 5942 5943 5944
5858 5858 5859 5861 5863 5864 5865 5866 5866 5866 5868 5869 5870 5871 5872 5873 5873 5874 5875 5878 5880 5880 5880 5882 5884 5885 5884 5885 5886 5887 5888 5890 5892 5895 5898 5900 5901 5903 5905 5907 5908 5909 5911 5913 5914 5915 5916 5916 5917 5918 5919 5920 5922 5923 5924 5925 5926 5927 5928 5928 5929 5930 5930 5931 5931 5932 5932 5933 5934 5935 5935 5936 5937 5937 5938 5938 5939 5940 5940 5941 5941 5942 5942 5943 5944 5944
5855 5857 5858 5860 5862 5863 5864 5864 5864 5864 5866 5866 5867 5869 5871 5870 5871 5872 5873 5876 5877 5877 5879 5880 5881 5882 5882 5882 5884 5885 5886 5888 5890 5893 5895 5898 5900 5902 5903 5905 5907 5908 5910 5912 5913 5914 5915 5916 5916 5917 5918 5920 5921 5922 5923 5924 5926 5927 5928 5929 5929 5930 5930 5931 5931 5932 5932 5933 5934 5935 5935 5936 5937 5937 5938 5939 5939 5940 5941 5941 5942 5942 5943 5944 5944 5945
5854 5855 5857 5858 5860 5861 5862 5861 5861 5862 5863 5863 5865 5867 5868 5868 5869 5870 5871 5873 5874 5876 5878 5878 5879 5881 5881 5881 5882 5883 5884 5885 5888 5891 5894 5896 5898 5900 5901 5903 5905 5907 5909 5911 5912 5913 5914 5915 5916 5917 5918 5920 5921 5922 5923 5924 5925 5927 5928 5929 5929 5930 5931 5931 5932 5932 5933 5933 5934 5935 5936 5936 5937 5938 5938 5939 5940 5941 5941 5942 5943 5943 5944 5945 5945 5946
5853 5854 5855 5857 5858 5859 5859 5859 5860 5860 5861 5862 5864 5865 5865 5866 5867 5868 5870 5871 5872 5874 5876 5876 5877 5880 5881 5880 5880 5881 5882 5883 5886 5888 5891 5894 5896 5897 5899 5902 5904 5905 5907 5909 5911 5912 5913 5914 5916 5917 5918 5919 5921 5922 5923 5924 5925 5926 5928 5929 5929 5930 5931 5931 5932 5932 5933 5933 5934 5935 5936 5937 5937 5938 5939 5940 5941 5941 5942 5943 5943 5944 5945 5946 5946 5947
5852 5853 5854 5855 5856 5856 5857 5857 5858 5858 5858 5860 5862 5863 5864 5865 5865 5867 5868 5869 5871 5874 5874 5874 5875 5878 5879 5878 5878 5880 5881 5882 5883 5886 5889 5892 5894 5895 5897 5899 5902 5904 5906 5908 5910 5911 5912 5913 5915 5917 5917 5919 5921 5922 5923 5924 5925 5926 5927 5928 5929 5930 5931 5931 5932 5933 5933 5934 5934 5935 5936 5937 5938 5938 5939 5940 5941 5942 5943 5943 5944 5945 5946 5946 5947 5948
5851 5851 5852 5852 5853 5854 5854 5855 5856 5856 5857 5858 5860 5861 5863 5863 5864 5866 5867 5868 5871 5873 5872 5872 5874 5876 5877 5877 5877 5878 5879 5880 5882 5884 5887 5890 5892 5895 5896 5898 5900 5902 5904 5906 5908 5910 5911 5913 5915 5916 5917 5918 5920 5921 5922 5923 5924 5926 5927 5928 5929 5930 5931 5931 5932 5933 5933 5934 5935 5935 5936 5937 5938 5939 5940 5941 5941 5942 5943 5943 5944 5945 5946 5947 5947 5948
5849 5849 5850 5850 5851 5851 5852 5853 5853 5854 5855 5856 5858 5860 5860 5861 5863 5865 5866 5868 5871 5872 5871 5871 5872 5874 5876 5876 5876 5877 5877 5879 5880 5882 5884 5887 5890 5894 5895 5897 5899 5900 5902 5904 5906 5908 5911 5912 5914 5915 5917 5918 5919 5921 5921 5923 5924 5925 5926 5927 5928 5930 5931 5931 5932 5933 5933 5934 5935 5936 5936 5937 5938 5939 5940 5941 5941 5942 5943 5943 5944 5945 5946 5946 5947 5948
5849 5848 5848 5848 5848 5849 5851 5851 5851 5852 5853 5855 5857 5857 5858 5860 5862 5863 5864 5867 5869 5869 5869 5869 5870 5873 5875 5874 5875 5876 5876 5877 5878 5880 5881 5883 5887 5890 5893 5895 5897 5898 5900 5902 5904 5907 5909 5911 5912 5914 5916 5917 5918 5920 5921 5922 5923 5924 5926 5927 5928 5929 5930 5931 5932 5933 5933 5934 5935 5935 5936 5937 5938 5939 5940 5941 5942 5942 5943 5943 5944 5945 5946 5946 5947 5947
5850 5849 5847 5846 5847 5848 5849 5849 5850 5850 5851 5853 5854 5854 5856 5859 5860 5860 5862 5864 5866 5866 5865 5866 5869 5872 5873 5873 5873 5874 5875 5876 5877 5878 5879 5881 5884 5887 5889 5892 5894 5896 5897 5900 5902 5905 5908 5909 5911 5913 5914 5916 5917 5919 5920 5921 5922 5923 5925 5926 5927 5928 5929 5930 5931 5932 5933 5934 5934 5935 5936 5937 5938 5939 5940 5941 5941 5942 5943 5943 5944 5945 5945 5946 5947 5947
5849 5848 5845 5845 5846 5846 5847 5848 5848 5849 5850 5851 5852 5853 5854 5856 5857 5857 5859 5861 5863 5863 5864 5865 5868 5870 5871 5871 5871 5872 5873 5874 5875 5876 5878 5879 5882 5884 5886 5889 5891 5893 5895 5898 5900 5903 5905 5907 5909 5911 5913 5915 5917 5918 5919 5920 5921 5922 5923 5925 5926 5927 5928 5929 5931 5932 5933 5933 5934 5935 5936 5937 5938 5939 5939 5940 5941 5942 5942 5943 5944 5944 5945 5946 5947 5947
5847 5846 5843 5844 5845 5845 5846 5846 5846 5847 5848 5848 5850 5851 5852 5853 5854 5855 5857 5860 5861 5862 5863 5864 5866 5868 5869 5869 5870 5870 5871 5872 5873 5875 5876 5877 5878 5881 5884 5887 5889 5891 5893 5896 5898 5901 5903 5905 5908 5909 5911 5913 5915 5917 5918 5919 5920 5921 5922 5923 5925 5926 5927 5929 5930 5931 5932 5933 5933 5935 5936 5937 5938 5938 5939 5940 5941 5942 5942 5943 5943 5944 5945 5945 5946 5946
5845 5844 5842 5842 5843 5843 5844 5844 5844 5845 5847 5847 5848 5849 5850 5852 5853 5853 5856 5857 5858 5860 5861 5862 5864 5865 5867 5868 5868 5868 5869 5870 5871 5872 5873 5874 5874 5876 5881 5885 5887 5889 5891 5893 5896 5898 5900 5903 5905 5907 5909 5912 5914 5915 5917 5918 5919 5920 5921 5923 5924 5925 5927 5928 5929 5931 5932 5933 5933 5934 5936 5937 5938 5938 5939 5940 5941 5942 5942 5943 5943 5944 5944 5945 5945 5946
5842 5843 5841 5840 5841 5842 5842 5843 5842 5843 5845 5846 5847 5847 5847 5850 5850 5851 5854 5855 5856 5858 5859 5860 5862 5863 5864 5865 5865 5866 5868 5868 5868 5869 5870 5871 5871 5873 5877 5881 5884 5886 5889 5891 5893 5895 5898 5901 5904 5906 5907 5909 5911 5913 5915 5917 5918 5919 5921 5922 5923 5925 5926 5927 5929 5930 5931 5932 5934 5935 5935 5936 5937 5938 5939 5939 5940 5941 5942 5943 5943 5944 5944 5945 5945 5945
5840 5841 5841 5839 5839 5839 5840 5842 5841 5841 5842 5844 5846 5846 5846 5847 5849 5850 5851 5853 5855 5856 5857 5859 5860 5861 5862 5862 5862 5864 5866 5866 5867 5867 5868 5869 5870 5870 5873 5877 5880 5883 5886 5888 5890 5893 5895 5898 5901 5903 5905 5907 5909 5911 5913 5915 5917 5919 5920 5921 5923 5924 5925 5927 5928 5929 5930 5932 5933 5934 5935 5936 5937 5937 5938 5939 5939 5940 5941 5942 5943 5943 5944 5944 5945 5945
5838 5839 5840 5839 5838 5838 5838 5839 5839 5839 5840 5841 5843 5844 5845 5846 5847 5848 5849 5850 5852 5854 5856 5858 5859 5860 5860 5859 5860 5862 5863 5865 5866 5866 5866 5867 5868 5869 5870 5873 5877 5880 5883 5885 5888 5891 5893 5895 5897 5900 5902 5904 5906 5908 5911 5913 5915 5917 5919 5920 5922 5923 5925 5926 5927 5928 5929 5930 5931 5933 5934 5935 5936 5937 5937 5938 5938 5939 5940 5941 5942 5943 5943 5944 5944 5945
5837 5837 5838 5838 5837 5837 5836 5836 5837 5837 5837 5839 5841 5842 5843 5843 5845 5847 5847 5848 5850 5852 5854 5855 5856 5857 5857 5856 5858 5860 5861 5862 5864 5864 5864 5865 5866 5867 5868 5870 5873 5876 5879 5882 5885 5888 5891 5893 5895 5897 5900 5902 5904 5907 5909 5911 5912 5915 5917 5918 5920 5922 5924 5925 5926 5927 5928 5929 5930 5931 5932 5934 5935 5935 5936 5936 5937 5938 5939 5940 5941 5941 5942 5943 5943 5944
5835 5835 5836 5836 5834 5834 5834 5834 5835 5835 5836 5838 5839 5840 5841 5842 5844 5845 5846 5848 5849 5850 5852 5853 5854 5855 5854 5854 5856 5858 5859 5860 5862 5862 5863 5863 5864 5865 5866 5868 5870 5872 5875 5879 5882 5885 5887 5890 5892 5894 5897 5900 5903 5905 5907 5909 5911 5913 5914 5916 5918 5920 5921 5923 5924 5925 5927 5928 5929 5930 5931 5933 5933 5934 5934 5935 5936 5937 5937 5938 5939 5939 5940 5941 5942 5942
5833 5833 5834 5834 5832 5831 5832 5832 5832 5832 5833 5835 5837 5839 5841 5842 5843 5844 5846 5847 5847 5848 5850 5850 5851 5853 5852 5852 5854 5855 5857 5858 5860 5860 5861 5861 5862 5863 5864 5865 5866 5868 5871 5874 5878 5881 5884 5886 5888 5891 5894 5897 5900 5903 5905 5907 5909 5910 5912 5914 5916 5917 5919 5920 5922 5923 5925 5926 5927 5929 5930 5931 5932 5933 5933 5933 5934 5935 5936 5936 5937 5937 5938 5939 5940 5940
5831 5831 5832 5832 5831 5831 5831 5831 5831 5832 5832 5833 5835 5837 5839 5840 5841 5843 5845 5845 5845 5846 5847 5848 5850 5851 5850 5850 5852 5853 5854 5856 5857 5858 5859 5859 5860 5860 5861 5862 5863 5865 5867 5870 5873 5877 5880 5882 5885 5888 5891 5895 5898 5900 5903 5905 5906 5908 5910 5912 5913 5914 5916 5918 5919 5921 5922 5924 5925 5927 5928 5929 5930 5931 5931 5932 5932 5933 5934 5935 5935 5935 5936 5937 5937 5938
5829 5829 5830 5830 5830 5830 5829 5828 5829 5830 5831 5832 5833 5834 5836 5839 5840 5841 5841 5841 5842 5844 5845 5847 5848 5848 5847 5848 5849 5850 5852 5853 5854 5855 5856 5857 5857 5858 5858 5859 5860 5862 5864 5866 5870 5874 5877 5879 5882 5886 5888 5891 5894 5897 5899 5902 5903 5906 5907 5909 5911 5912 5914 5915 5917 5918 5919 5921 5922 5924 5925 5926 5927 5928 5929 5929 5930 5931 5932 5933 5933 5934 5934 5935 5935 5936
5827 5827 5828 5828 5828 5828 5827 5826 5826 5828 5829 5829 5830 5832 5834 5837 5838 5838 5839 5839 5840 5843 5844 5845 5845 5845 5845 5846 5846 5848 5849 5851 5852 5852 5853 5854 5855 5855 5855 5855 5857 5859 5861 5863 5867 5871 5874 5877 5881 5883 5886 5889 5891 5893 5896 5898 5900 5902 5904 5906 5908 5909 5911 5912 5914 5915 5916 5918 5919 5921 5922 5923 5924 5924 5925 5926 5927 5928 5930 5931 5931 5932 5932 5933 5933 5934
5825 5826 5826 5826 5826 5825 5825 5825 5825 5825 5826 5827 5828 5829 5831 5834 5835 5836 5837 5838 5840 5841 5841 5842 5843 5843 5844 5844 5845 5846 5848 5849 5850 5850 5850 5851 5852 5852 5852 5852 5854 5857 5859 5861 5865 5869 5871 5875 5879 5881 5884 5886 5889 5891 5893 5895 5897 5899 5901 5903 5905 5906 5908 5909 5911 5912 5913 5915 5916 5917 5918 5919 5920 5921 5921 5922 5923 5924 5926 5927 5929 5929 5930 5930 5931 5931
5824 5824 5824 5824 5824 5823 5824 5823 5823 5823 5823 5824 5826 5826 5828 5830 5832 5833 5834 5836 5838 5839 5839 5840 5841 5842 5843 5844 5844 5845 5846 5847 5848 5848 5849 5849 5850 5851 5850 5850 5851 5853 5855 5858 5862 5865 5869 5872 5876 5879 5882 5884 5886 5888 5890 5892 5894 5896 5898 5900 5902 5904 5906 5907 5909 5910 5911 5912 5914 5914 5915 5916 5917 5918 5918 5919 5920 5921 5923 5924 5925 5926 5927 5928 5928 5929
5821 5821 5822 5822 5822 5821 5821 5821 5821 5821 5821 5821 5823 5823 5825 5827 5829 5831 5832 5834 5836 5837 5838 5839 5840 5841 5842 5843 5844 5844 5845 5846 5847 5847 5848 5848 5849 5849 5849 5848 5848 5849 5852 5855 5858 5862 5866 5869 5872 5876 5878 5881 5884 5886 5887 5889 5891 5892 5894 5896 5899 5901 5903 5905 5906 5908 5909 5910 5911 5911 5912 5913 5915 5916 5917 5918 5919 5920 5921 5921 5922 5923 5924 5925 5926 5927
5819 5819 5819 5820 5820 5819 5819 5819 5819 5819 5819 5820 5820 5822 5823 5825 5826 5828 5829 5832 5834 5835 5837 5838 5838 5839 5841 5843 5844 5844 5843 5844 5845 5845 5846 5846 5846 5847 5847 5846 5845 5847 5849 5852 5854 5858 5861 5865 5868 5871 5875 5877 5880 5882 5884 5886 5888 5889 5891 5893 5896 5898 5900 5901 5903 5904 5906 5907 5908 5909 5910 5911 5913 5914 5915 5916 5918 5919 5920 5920 5921 5921 5922 5923 5923 5924
5817 5817 5817 5818 5818 5817 5817 5817 5817 5817 5817 5818 5819 5820 5821 5823 5824 5825 5827 5829 5831 5833 5835 5836 5836 5837 5840 5841 5842 5842 5842 5842 5843 5843 5844 5844 5844 5844 5845 5845 5844 5845 5848 5850 5853 5855 5858 5861 5865 5868 5871 5874 5876 5878 5881 5884 5886 5888 5890 5892 5894 5896 5897 5898 5900 5901 5903 5904 5905 5906 5907 5908 5910 5911 5912 5914 5915 5915 5916 5918 5919 5919 5920 5920 5921 5921
5814 5815 5815 5815 5816 5815 5814 5815 5815 5814 5815 5815 5815 5816 5817 5819 5821 5823 5825 5827 5828 5830 5832 5834 5834 5835 5837 5839 5839 5840 5840 5841 5841 5842 5842 5843 5843 5843 5844 5845 5844 5844 5846 5848 5851 5853 5855 5858 5861 5865 5868 5871 5874 5877 5879 5882 5884 5886 5889 5891 5892 5894 5895 5896 5897 5899 5900 5901 5902 5903 5904 5905 5906 5908 5909 5910 5911 5911 5912 5913 5915 5916 5916 5916 5916 5916
5812 5813 5812 5813 5813 5813 5812 5812 5812 5812 5812 5811 5812 5813 5814 5816 5817 5819 5821 5824 5826 5828 5829 5831 5831 5832 5834 5836 5837 5838 5838 5840 5840 5840 5841 5842 5842 5842 5843 5844 5844 5843 5844 5845 5846 5849 5852 5855 5858 5862 5864 5867 5870 5873 5876 5879 5881 5884 5886 5888 5889 5891 5892 5893 5894 5896 5897 5897 5898 5899 5900 5901 5902 5904 5906 5907 5907 5908 5909 5909 5910 5910 5911 5911 5911 5911
5810 5810 5810 5810 5811 5810 5809 5809 5809 5809 5808 5808 5808 5810 5811 5813 5814 5816 5819 5821 5824 5825 5826 5827 5828 5829 5831 5834 5835 5836 5837 5838 5839 5839 5839 5840 5840 5840 5839 5841 5842 5841 5840 5840 5841 5844 5847 5850 5854 5857 5860 5863 5866 5869 5872 5875 5877 5879 5881 5883 5885 5886 5887 5889 5890 5892 5893 5894 5895 5896 5897 5898 5899 5901 5902 5903 5904 5905 5906 5906 5906 5907 5907 5908 5908 5907
5807 5808 5808 5808 5808 5808 5807 5807 5806 5806 5805 5805 5806 5807 5808 5810 5812 5813 5816 5818 5820 5822 5823 5824 5825 5827 5829 5831 5833 5835 5836 5836 5836 5837 5838 5838 5838 5838 5837 5837 5838 5838 5838 5838 5838 5840 5842 5846 5850 5854 5857 5859 5862 5865 5868 5871 5873 5875 5877 5879 5881 5882 5884 5885 5887 5888 5890 5891 5892 5893 5893 5895 5895 5897 5899 5901 5902 5902 5902 5902 5903 5903 5904 5905 5904 5904
5804 5805 5805 5805 5805 5805 5804 5804 5804 5803 5803 5803 5803 5804 5806 5808 5809 5810 5812 5814 5816 5818 5819 5821 5822 5824 5826 5828 5831 5832 5834 5834 5834 5835 5837 5837 5837 5837 5836 5836 5836 5838 5838 5838 5838 5840 5842 5846 5849 5852 5854 5857 5859 5861 5864 5867 5869 5871 5873 5875 5877 5878 5880 5882 5884 5885 5885 5886 5887 5888 5888 5889 5891 5892 5894 5896 5897 5898 5898 5898 5898 5898 5900 5901 5901 5901
5802 5802 5803 5803 5803 5802 5802 5801 5801 5801 5801 5801 5801 5802 5804 5805 5806 5808 5809 5811 5812 5814 5815 5817 5819 5821 5823 5826 5828 5830 5831 5832 5833 5833 5835 5836 5836 5836 5836 5836 5836 5838 5838 5838 5839 5841 5843 5846 5848 5850 5852 5853 5855 5857 5860 5862 5865 5868 5870 5872 5873 5875 5877 5879 5880 5881 5881 5882 5883 5883 5883 5884 5886 5887 5889 5890 5892 5894 5894 5894 5893 5892 5894 5897 5898 5898
5799 5800 5800 5800 5800 5800 5800 5799 5800 5800 5799 5799 5799 5800 5802 5803 5804 5805 5806 5807 5809 5811 5812 5814 5816 5818 5821 5823 5825 5826 5828 5830 5831 5831 5832 5834 5834 5835 5835 5835 5836 5837 5838 5839 5840 5841 5842 5845 5847 5849 5850 5851 5853 5854 5857 5859 5862 5865 5867 5869 5870 5872 5874 5876 5877 5878 5878 5879 5879 5879 5879 5880 5881 5882 5883 5884 5887 5888 5888 5889 5888 5888 5889 5891 5893 5894
5796 5797 5798 5798 5798 5797 5797 5797 5798 5798 5797 5797 5798 5799 5800 5801 5802 5803 5804 5805 5806 5808 5809 5811 5813 5815 5818 5820 5822 5823 5826 5828 5829 5829 5830 5832 5832 5833 5834 5835 5836 5837 5838 5839 5839 5840 5841 5844 5847 5849 5849 5850 5852 5854 5856 5858 5860 5862 5864 5866 5867 5869 5871 5872 5873 5875 5876 5875 5874 5874 5874 5875 5875 5876 5877 5879 5880 5880 5881 5883 5883 5882 5883 5886 5888 5889
5794 5794 5795 5796 5796 5795 5795 5795 5795 5795 5795 5795 5796 5796 5798 5799 5800 5800 5801 5802 5804 5805 5806 5808 5810 5812 5814 5817 5819 5820 5823 5825 5826 5827 5828 5830 5830 5831 5832 5834 5835 5836 5837 5838 5839 5839 5840 5842 5844 5845 5846 5848 5850 5853 5855 5857 5858 5860 5862 5863 5865 5866 5868 5869 5870 5871 5873 5871 5869 5869 5870 5871 5870 5870 5870 5872 5872 5872 5874 5875 5875 5876 5878 5881 5883 5883
5791 5791 5792 5793 5793 5793 5793 5793 5793 5793 5793 5793 5793 5794 5796 5797 5797 5797 5797 5798 5800 5802 5804 5805 5807 5809 5811 5813 5815 5817 5820 5823 5824 5825 5826 5827 5828 5829 5830 5832 5834 5834 5835 5837 5838 5839 5840 5840 5842 5843 5844 5846 5848 5850 5852 5854 5856 5858 5860 5861 5862 5863 5864 5865 5866 5868 5869 5867 5865 5865 5866 5866 5865 5865 5865 5865 5866 5866 5867 5868 5869 5871 5874 5876 5878 5878
5788 5789 5789 5790 5791 5791 5791 5790 5790 5790 5790 5790 5791 5792 5793 5794 5794 5795 5795 5796 5798 5799 5800 5802 5804 5806 5808 5810 5812 5814 5817 5820 5822 5823 5824 5825 5826 5828 5829 5831 5832 5833 5834 5836 5837 5838 5838 5839 5840 5842 5844 5846 5847 5849 5850 5852 5854 5855 5857 5858 5859 5860 5861 5862 5863 5864 5864 5864 5863 5863 5863 5863 5862 5861 5862 5862 5862 5863 5863 5863 5864 5866 5869 5872 5873 5874
5785 5786 5786 5787 5788 5788 5788 5788 5788 5788 5787 5787 5788 5789 5790 5791 5791 5792 5793 5794 5795 5796 5797 5799 5801 5803 5805 5807 5809 5812 5815 5817 5820 5821 5822 5823 5825 5826 5828 5830 5831 5832 5833 5834 5836 5837 5837 5838 5839 5841 5843 5844 5846 5848 5849 5851 5852 5853 5855 5855 5856 5857 5858 5859 5860 5860 5861 5861 5861 5861 5860 5860 5860 5860 5860 5860 5860 5861 5861 5860 5860 5862 5865 5868 5870 5871
5782 5783 5783 5784 5784 5785 5786 5785 5785 5785 5785 5785 5785 5786 5787 5787 5789 5790 5790 5791 5792 5793 5794 5796 5798 5800 5802 5804 5806 5809 5812 5815 5817 5819 5820 5821 5823 5825 5826 5828 5829 5831 5832 5833 5834 5835 5836 5837 5838 5840 5842 5843 5844 5845 5847 5849 5850 5851 5852 5853 5853 5854 5855 5855 5856 5857 5858 5858 5858 5858 5858 5858 5858 5858 5858 5858 5859 5860 5860 5860 5861 5862 5864 5866 5867 5868
5779 5779 5780 5781 5782 5782 5782 5782 5782 5782 5782 5782 5783 5783 5783 5784 5785 5786 5787 5788 5788 5789 5791 5793 5794 5796 5798 5801 5802 5805 5808 5811 5813 5816 5818 5819 5821 5822 5824 5826 5827 5829 5830 5832 5833 5834 5835 5836 5837 5839 5840 5841 5842 5843 5845 5846 5847 5848 5849 5850 5850 5851 5851 5852 5853 5853 5854 5855 5855 5856 5856 5856 5857 5857 5857 5857 5858 5859 5860 5860 5860 5861 5862 5863 5863 5864
5775 5776 5777 5778 5779 5779 5780 5780 5779 5779 5780 5780 5780 5780 5780 5781 5781 5782 5783 5784 5785 5786 5787 5789 5791 5793 5794 5797 5799 5802 5804 5806 5809 5812 5815 5817 5818 5820 5822 5824 5825 5827 5829 5830 5832 5833 5834 5835 5835 5837 5838 5839 5840 5841 5843 5844 5845 5846 5847 5847 5848 5848 5849 5849 5850 5851 5851 5852 5852 5853 5854 5854 5855 5855 5856 5856 5856 5857 5858 5858 5858 5859 5859 5860 5860 5861
5773 5773 5774 5776 5776 5776 5777 5777 5776 5776 5776 5777 5777 5777 5777 5778 5778 5779 5779 5780 5781 5782 5783 5785 5787 5789 5791 5793 5796 5798 5800 5802 5804 5806 5809 5812 5814 5817 5819 5821 5823 5825 5827 5828 5830 5831 5832 5834 5834 5835 5837 5838 5839 5840 5841 5842 5843 5844 5845 5845 5846 5846 5846 5847 5848 5848 5849 5849 5850 5851 5851 5851 5852 5853 5854 5854 5855 5855 5855 5856 5857 5857 5858 5858 5858 5859
5770 5771 5772 5773 5774 5774 5774 5774 5773 5773 5773 5773 5774 5774 5773 5774 5774 5774 5775 5775 5776 5777 5779 5781 5783 5785 5787 5789 5791 5793 5797 5800 5802 5804 5806 5808 5810 5812 5814 5816 5819 5821 5823 5825 5827 5828 5830 5831 5833 5834 5835 5837 5837 5838 5839 5840 5841 5842 5843 5843 5844 5844 5845 5845 5846 5846 5847 5847 5848 5848 5849 5849 5850 5850 5851 5852 5852 5853 5853 5854 5854 5855 5855 5855 5856 5856
5767 5768 5769 5771 5772 5771 5771 5771 5770 5770 5770 5770 5770 5770 5770 5770 5770 5770 5770 5770 5771 5773 5775 5777 5779 5781 5783 5785 5787 5789 5793 5796 5799 5802 5804 5807 5809 5810 5811 5813 5815 5817 5820 5821 5823 5825 5827 5828 5830 5832 5833 5834 5835 5836 5837 5838 5839 5839 5840 5841 5842 5842 5843 5844 5844 5845 5845 5846 5846 5846 5846 5846 5846 5847 5847 5848 5848 5849 5850 5850 5851 5851 5852 5852 5852 5853
5765 5766 5767 5769 5769 5768 5768 5768 5768 5768 5768 5767 5767 5767 5766 5766 5766 5766 5766 5766 5767 5769 5771 5772 5774 5777 5779 5781 5784 5787 5790 5793 5796 5798 5801 5805 5807 5809 5810 5812 5813 5814 5816 5818 5820 5822 5824 5825 5827 5829 5830 5832 5832 5833 5834 5835 5836 5837 5837 5838 5839 5840 5841 5841 5842 5843 5843 5843 5844 5844 5844 5844 5844 5844 5844 5844 5844 5845 5846 5846 5847 5847 5847 5848 5848 5848